CST,Max TemperatureF,Mean TemperatureF,Min TemperatureF,Max Dew PointF,MeanDew PointF,Min DewpointF,Max Humidity, Mean Humidity, Min Humidity, Max Sea Level PressureIn, Mean Sea Level PressureIn, Min Sea Level PressureIn, Max VisibilityMiles, Mean VisibilityMiles, Min VisibilityMiles, Max Wind SpeedMPH, Mean Wind SpeedMPH, Max Gust SpeedMPH,PrecipitationIn, CloudCover, Events, WindDirDegrees
2012-11-1,82,64,46,54,43,34,86,52,18,30.08,29.98,29.90,10,10,10,16,6,18,0.00,0,,177
2012-11-2,84,68,52,56,48,40,96,58,20,29.93,29.88,29.81,10,10,8,14,7,16,0.00,0,,184
2012-11-3,73,64,54,54,50,46,80,62,44,30.08,29.97,29.87,10,10,10,16,8,21,0.00,0,,62
2012-11-4,76,60,44,50,47,42,93,66,38,30.15,30.08,30.01,10,10,10,13,6,15,0.00,0,,207
2012-11-5,74,61,47,51,41,35,93,59,25,30.11,30.07,29.99,10,10,7,21,8,24,0.00,0,,68
2012-11-6,79,61,43,40,37,35,70,46,21,30.14,30.09,30.03,10,10,10,14,5,16,0.00,0,,182
2012-11-7,81,62,43,52,43,37,82,54,25,30.12,30.02,29.93,10,10,10,20,8,23,0.00,0,,172
2012-11-8,86,72,57,54,49,39,80,50,20,30.03,29.88,29.80,10,10,10,21,12,26,0.00,0,,186
2012-11-9,82,70,57,56,51,45,86,56,26,29.89,29.83,29.77,10,10,10,18,12,24,0.00,0,,190
2012-11-10,82,71,60,57,55,51,84,60,36,29.79,29.71,29.58,10,9,3,39,18,49,T,0,Rain,182
2012-11-11,66,52,37,57,22,7,84,49,14,30.26,29.99,29.68,10,10,10,26,13,43,0.00,0,,312
2012-11-12,56,42,28,21,13,8,48,33,18,30.47,30.38,30.27,10,10,10,13,5,15,0.00,0,,63
2012-11-13,58,48,37,20,19,15,48,35,21,30.38,30.28,30.17,10,10,10,22,10,29,0.00,0,,144
2012-11-14,63,46,28,29,25,18,58,43,27,30.36,30.26,30.18,10,10,10,12,4,15,0.00,0,,149
2012-11-15,72,55,37,43,37,29,92,59,25,30.21,30.15,30.08,10,10,9,10,5,12,0.00,0,,170
2012-11-16,65,52,39,45,42,36,92,70,48,30.31,30.24,30.19,10,10,10,15,7,22,0.00,1,,123
2012-11-17,68,58,47,46,43,39,83,64,45,30.30,30.18,30.09,10,10,10,22,11,26,0.00,3,,150
2012-11-18,67,60,53,50,48,42,77,67,56,30.11,30.07,30.04,10,10,10,16,9,21,T,3,Rain,178
2012-11-19,76,60,44,53,43,34,100,64,27,30.20,30.12,30.06,10,8,2,17,7,21,0.00,0,,249
2012-11-20,75,58,40,36,31,24,70,43,16,30.22,30.15,30.10,10,10,5,12,5,25,0.00,0,,57
2012-11-21,75,63,50,54,44,28,67,53,38,30.17,30.09,30.01,10,10,10,23,10,29,0.00,0,,162
2012-11-22,79,65,51,53,45,30,86,57,28,30.09,29.98,29.91,10,10,10,22,9,29,T,2,Rain,218
2012-11-23,61,49,37,31,22,17,48,34,19,30.45,30.35,30.12,10,10,10,29,14,32,0.00,0,,44
2012-11-24,65,48,31,35,26,19,63,44,24,30.41,30.20,29.98,10,10,7,16,8,21,0.00,0,,195
2012-11-25,78,61,44,42,35,29,65,42,18,29.96,29.86,29.78,10,10,10,21,10,24,0.00,0,,226
2012-11-26,75,59,43,37,31,24,66,42,18,30.28,30.01,29.82,10,10,10,25,13,32,0.00,1,,356
2012-11-27,57,44,31,27,24,20,61,47,32,30.43,30.33,30.25,10,10,10,22,7,26,0.00,0,,313
2012-11-28,74,53,32,40,33,23,69,46,23,30.29,30.20,30.12,10,10,10,16,8,20,0.00,0,,182
2012-11-29,76,60,44,45,41,37,83,54,25,30.10,30.04,29.96,10,10,10,16,9,20,0.00,0,,203
2012-11-30,76,60,43,48,43,34,100,61,21,30.15,30.03,29.94,10,6,0,16,8,20,0.00,0,Fog,202